DKH205 YSSY-YMML

Flight info

Callsign DKH205
Flight time 1h 4m
Altitude 32000
Route WOL2/34L WOL H65 LEECE Q29 ML YMML/34
Aircraft A32N/M-V/N

Departure

Time 2026-05-04 05:54
Airport Sydney Kingsford Smith International Airport (YSSY)

Arrival

Time 2026-05-04 06:59
Airport Melbourne Airport (YMML)
Time Latitude Longitude Altitude Speed Heading
2026-05-04 05:38 -33.93519 151.19032 27 ft 0 kts 166°
2026-05-04 05:40 -33.93567 151.19012 27 ft 10 kts 225°
2026-05-04 05:40 -33.93600 151.18881 28 ft 20 kts 269°
2026-05-04 05:40 -33.93618 151.18716 28 ft 19 kts 252°
2026-05-04 05:41 -33.93658 151.18553 28 ft 21 kts 253°
2026-05-04 05:41 -33.93700 151.18373 26 ft 23 kts 255°
2026-05-04 05:41 -33.93747 151.18175 20 ft 26 kts 255°
2026-05-04 05:41 -33.93797 151.17961 14 ft 27 kts 255°
2026-05-04 05:42 -33.93851 151.17735 9 ft 27 kts 254°
2026-05-04 05:42 -33.93890 151.17566 9 ft 0 kts 254°
2026-05-04 05:47 -33.93894 151.17551 9 ft 6 kts 254°
2026-05-04 05:47 -33.93909 151.17487 10 ft 9 kts 255°
2026-05-04 05:47 -33.93930 151.17395 13 ft 12 kts 253°
2026-05-04 05:48 -33.93960 151.17281 16 ft 14 kts 244°
2026-05-04 05:48 -33.94043 151.17242 19 ft 13 kts 168°
2026-05-04 05:48 -33.94145 151.17270 20 ft 17 kts 168°
2026-05-04 05:48 -33.94283 151.17307 21 ft 22 kts 167°
2026-05-04 05:49 -33.94445 151.17349 22 ft 25 kts 167°
2026-05-04 05:49 -33.94618 151.17394 21 ft 25 kts 168°
2026-05-04 05:49 -33.94788 151.17438 19 ft 24 kts 168°
2026-05-04 05:49 -33.94953 151.17485 18 ft 24 kts 166°
2026-05-04 05:51 -33.96034 151.17758 15 ft 20 kts 168°
2026-05-04 05:51 -33.96167 151.17793 15 ft 19 kts 167°
2026-05-04 05:52 -33.96301 151.17830 15 ft 19 kts 168°
2026-05-04 05:52 -33.96410 151.17865 13 ft 11 kts 150°
2026-05-04 05:52 -33.96437 151.17931 15 ft 9 kts 89°
2026-05-04 05:52 -33.96417 151.18025 15 ft 13 kts 51°
2026-05-04 05:53 -33.96288 151.18030 15 ft 36 kts 348°
2026-05-04 05:54 -33.90091 151.14146 2432 ft 193 kts 295°
2026-05-04 05:55 -33.89556 151.12616 2692 ft 208 kts 298°
2026-05-04 05:55 -33.88883 151.11002 2968 ft 224 kts 301°
2026-05-04 05:55 -33.88086 151.09322 3313 ft 239 kts 303°
2026-05-04 05:55 -33.87201 151.07577 3848 ft 246 kts 304°
2026-05-04 05:56 -33.86291 151.05841 4582 ft 246 kts 304°
2026-05-04 05:56 -33.85377 151.04120 5297 ft 246 kts 304°
2026-05-04 05:56 -33.84460 151.02405 5951 ft 248 kts 303°
2026-05-04 05:56 -33.83772 151.00485 6578 ft 256 kts 282°
2026-05-04 05:57 -33.83881 150.98338 7220 ft 268 kts 258°
2026-05-04 05:57 -33.84804 150.96364 7848 ft 282 kts 233°
2026-05-04 05:57 -33.86393 150.94920 8446 ft 295 kts 210°
2026-05-04 05:57 -33.88408 150.94325 9012 ft 309 kts 184°
2026-05-04 05:58 -33.90548 150.94739 9582 ft 316 kts 166°
2026-05-04 05:58 -33.92647 150.95489 10144 ft 320 kts 165°
2026-05-04 05:58 -33.94813 150.96286 10514 ft 331 kts 165°
2026-05-04 05:58 -33.97071 150.97049 10769 ft 344 kts 171°
2026-05-04 05:59 -33.99514 150.97255 11077 ft 358 kts 188°
2026-05-04 05:59 -34.01994 150.96699 11510 ft 372 kts 198°
2026-05-04 05:59 -34.04545 150.95866 11884 ft 384 kts 199°
2026-05-04 05:59 -34.07170 150.94977 12104 ft 396 kts 200°
2026-05-04 06:00 -34.09849 150.94078 12309 ft 408 kts 199°
2026-05-04 06:00 -34.12627 150.93159 12498 ft 419 kts 199°
2026-05-04 06:00 -34.15490 150.92219 12731 ft 428 kts 199°
2026-05-04 06:00 -34.18351 150.91287 13133 ft 431 kts 199°
2026-05-04 06:01 -34.21250 150.90350 13557 ft 434 kts 199°
2026-05-04 06:01 -34.24169 150.89404 13978 ft 436 kts 199°
2026-05-04 06:03 -34.45136 150.82582 16551 ft 454 kts 199°
2026-05-04 06:03 -34.48225 150.81573 16878 ft 457 kts 199°
2026-05-04 06:05 -34.64209 150.65277 19052 ft 442 kts 240°
2026-05-04 06:05 -34.67811 150.59230 19663 ft 444 kts 240°
2026-05-04 06:05 -34.69636 150.56180 19934 ft 446 kts 239°
2026-05-04 06:06 -34.71441 150.53169 20206 ft 447 kts 240°
2026-05-04 06:06 -34.73271 150.50113 20478 ft 448 kts 240°
2026-05-04 06:06 -34.75109 150.47044 20742 ft 449 kts 240°
2026-05-04 06:06 -34.76937 150.43991 21013 ft 450 kts 240°
2026-05-04 06:07 -34.78778 150.40912 21267 ft 451 kts 240°
2026-05-04 06:07 -34.80641 150.37795 21494 ft 453 kts 240°
2026-05-04 06:07 -34.82483 150.34708 21678 ft 456 kts 241°
2026-05-04 06:07 -34.84349 150.31578 21927 ft 457 kts 241°
2026-05-04 06:08 -34.86219 150.28444 22179 ft 458 kts 241°
2026-05-04 06:08 -34.88073 150.25330 22385 ft 459 kts 241°
2026-05-04 06:08 -34.89955 150.22165 22606 ft 461 kts 241°
2026-05-04 06:08 -34.91817 150.19034 22846 ft 461 kts 241°
2026-05-04 06:09 -34.93693 150.15875 23057 ft 462 kts 241°
2026-05-04 06:09 -34.95596 150.12668 23258 ft 464 kts 241°
2026-05-04 06:11 -35.08709 149.90498 25877 ft 461 kts 242°
2026-05-04 06:11 -35.10595 149.87300 26228 ft 460 kts 241°
2026-05-04 06:13 -35.23559 149.65231 28312 ft 455 kts 242°
2026-05-04 06:14 -35.34549 149.46399 29744 ft 453 kts 243°
2026-05-04 06:14 -35.36370 149.43269 29952 ft 453 kts 242°
2026-05-04 06:15 -35.38182 149.40150 30167 ft 452 kts 243°
2026-05-04 06:15 -35.40000 149.37019 30366 ft 452 kts 243°
2026-05-04 06:15 -35.41838 149.33853 30558 ft 452 kts 243°
2026-05-04 06:15 -35.43641 149.30743 30752 ft 451 kts 243°
2026-05-04 06:16 -35.45460 149.27603 30981 ft 450 kts 243°
2026-05-04 06:16 -35.47252 149.24506 31165 ft 451 kts 243°
2026-05-04 06:16 -35.49077 149.21350 31319 ft 451 kts 244°
2026-05-04 06:16 -35.50890 149.18211 31506 ft 451 kts 244°
2026-05-04 06:17 -35.52694 149.15085 31638 ft 451 kts 244°
2026-05-04 06:17 -35.54494 149.11961 31783 ft 451 kts 244°
2026-05-04 06:17 -35.56318 149.08798 31941 ft 451 kts 244°
2026-05-04 06:17 -35.58118 149.05670 31976 ft 452 kts 244°
2026-05-04 06:18 -35.61716 148.99414 31987 ft 451 kts 244°
2026-05-04 06:20 -35.76115 148.74243 32000 ft 451 kts 244°
2026-05-04 06:21 -35.85072 148.58489 31996 ft 451 kts 244°
2026-05-04 06:22 -35.88678 148.52127 31994 ft 451 kts 244°
2026-05-04 06:25 -36.13526 148.07819 31996 ft 450 kts 245°
2026-05-04 06:26 -36.17049 148.01471 31995 ft 449 kts 245°
2026-05-04 06:26 -36.20614 147.95120 31996 ft 448 kts 245°
2026-05-04 06:27 -36.29484 147.79189 31996 ft 450 kts 245°
2026-05-04 06:28 -36.33008 147.72832 31989 ft 450 kts 245°
2026-05-04 06:28 -36.36550 147.66426 31997 ft 450 kts 245°
2026-05-04 06:29 -36.40060 147.60059 31990 ft 451 kts 245°
2026-05-04 06:29 -36.43613 147.53597 31988 ft 452 kts 245°
2026-05-04 06:30 -36.47145 147.47165 31984 ft 453 kts 245°
2026-05-04 06:30 -36.50678 147.40715 31984 ft 452 kts 245°
2026-05-04 06:31 -36.54187 147.34302 31983 ft 452 kts 246°
2026-05-04 06:31 -36.57722 147.27824 31989 ft 453 kts 246°
2026-05-04 06:33 -36.71804 147.01894 31985 ft 452 kts 246°
2026-05-04 06:34 -36.75297 146.95441 31990 ft 452 kts 245°
2026-05-04 06:34 -36.78818 146.88915 31981 ft 454 kts 245°
2026-05-04 06:36 -36.92837 146.62810 31437 ft 453 kts 245°
2026-05-04 06:37 -36.94570 146.59573 31206 ft 449 kts 245°
2026-05-04 06:37 -36.96309 146.56322 30972 ft 446 kts 246°
2026-05-04 06:37 -36.98032 146.53095 30739 ft 446 kts 246°
2026-05-04 06:37 -36.99741 146.49886 30507 ft 445 kts 246°
2026-05-04 06:38 -37.01437 146.46695 30279 ft 444 kts 246°
2026-05-04 06:38 -37.03144 146.43491 29849 ft 438 kts 246°
2026-05-04 06:40 -37.15243 146.20645 24902 ft 459 kts 245°
2026-05-04 06:40 -37.17001 146.17319 24916 ft 459 kts 245°
2026-05-04 06:40 -37.18750 146.14006 24934 ft 458 kts 245°
2026-05-04 06:40 -37.20515 146.10655 24644 ft 463 kts 245°
2026-05-04 06:41 -37.22280 146.07295 23796 ft 464 kts 244°
2026-05-04 06:41 -37.24031 146.03966 22914 ft 458 kts 244°
2026-05-04 06:41 -37.25780 146.00641 22009 ft 449 kts 244°
2026-05-04 06:41 -37.27473 145.97417 21121 ft 440 kts 244°
2026-05-04 06:42 -37.29132 145.94249 20228 ft 432 kts 243°
2026-05-04 06:42 -37.30743 145.91174 19343 ft 425 kts 243°
2026-05-04 06:42 -37.32357 145.88097 18454 ft 418 kts 242°
2026-05-04 06:44 -37.42972 145.67835 12752 ft 386 kts 241°
2026-05-04 06:44 -37.44436 145.65039 12388 ft 377 kts 240°
2026-05-04 06:44 -37.45917 145.62370 11833 ft 375 kts 238°
2026-05-04 06:45 -37.47461 145.59708 11236 ft 373 kts 238°
2026-05-04 06:45 -37.48968 145.57120 10682 ft 370 kts 238°
2026-05-04 06:45 -37.50480 145.54523 10110 ft 367 kts 238°
2026-05-04 06:45 -37.51985 145.51936 9536 ft 364 kts 238°
2026-05-04 06:46 -37.53461 145.49394 9062 ft 360 kts 238°
2026-05-04 06:46 -37.54940 145.46843 8901 ft 361 kts 238°
2026-05-04 06:46 -37.56428 145.44275 8897 ft 363 kts 238°
2026-05-04 06:46 -37.57909 145.41721 8829 ft 358 kts 238°
2026-05-04 06:48 -37.66705 145.26504 6387 ft 269 kts 241°
2026-05-04 06:48 -37.67788 145.24614 6001 ft 268 kts 241°
2026-05-04 06:49 -37.68892 145.22691 5612 ft 268 kts 242°
2026-05-04 06:50 -37.76384 145.09657 4181 ft 249 kts 242°
2026-05-04 06:51 -37.77380 145.07919 3955 ft 243 kts 242°
2026-05-04 06:51 -37.78370 145.06194 3729 ft 238 kts 242°
2026-05-04 06:51 -37.79325 145.04526 3504 ft 233 kts 242°
2026-05-04 06:51 -37.80268 145.02878 3275 ft 229 kts 243°
2026-05-04 06:52 -37.81120 145.01227 3044 ft 219 kts 252°
2026-05-04 06:52 -37.81642 144.99474 2815 ft 209 kts 263°
2026-05-04 06:52 -37.81961 144.97729 2678 ft 199 kts 265°
2026-05-04 06:52 -37.82248 144.96063 2495 ft 188 kts 266°
2026-05-04 06:53 -37.82509 144.94534 2439 ft 164 kts 268°
2026-05-04 06:53 -37.82691 144.93199 2468 ft 152 kts 271°
2026-05-04 06:53 -37.82844 144.91893 2456 ft 149 kts 271°
2026-05-04 06:53 -37.82994 144.90607 2459 ft 148 kts 271°
2026-05-04 06:54 -37.83149 144.89300 2456 ft 148 kts 271°
2026-05-04 06:54 -37.83202 144.88023 2445 ft 142 kts 291°
2026-05-04 06:54 -37.82594 144.87096 2472 ft 146 kts 334°
2026-05-04 06:54 -37.81612 144.86771 2474 ft 138 kts 347°
2026-05-04 06:55 -37.80713 144.86597 2430 ft 126 kts 348°
2026-05-04 06:55 -37.79854 144.86476 2327 ft 125 kts 351°
2026-05-04 06:55 -37.78997 144.86345 2170 ft 123 kts 348°
2026-05-04 06:55 -37.78156 144.86130 2137 ft 123 kts 344°
2026-05-04 06:56 -37.77318 144.85902 2052 ft 123 kts 347°
2026-05-04 06:57 -37.71270 144.84598 917 ft 128 kts 352°
2026-05-04 06:58 -37.70391 144.84428 741 ft 129 kts 354°
2026-05-04 06:58 -37.69484 144.84270 588 ft 131 kts 353°
2026-05-04 06:58 -37.68584 144.84103 399 ft 131 kts 354°
2026-05-04 06:58 -37.67751 144.83949 363 ft 92 kts 351°
2026-05-04 06:59 -37.67410 144.83884 373 ft 19 kts 351°
2026-05-04 06:59 -37.67281 144.83861 376 ft 16 kts 351°
2026-05-04 06:59 -37.67174 144.83843 380 ft 15 kts 354°
2026-05-04 06:59 -37.67065 144.83835 384 ft 16 kts
2026-05-04 07:01 -37.66851 144.83907 391 ft 1 kts 20°
2026-05-04 07:01 -37.66821 144.83920 392 ft 8 kts 21°
2026-05-04 07:02 -37.66761 144.83960 393 ft 9 kts 41°
2026-05-04 07:02 -37.66723 144.84041 394 ft 10 kts 74°
2026-05-04 07:02 -37.66739 144.84137 392 ft 12 kts 126°
2026-05-04 07:02 -37.66820 144.84196 390 ft 14 kts 169°
2026-05-04 07:03 -37.66929 144.84218 388 ft 16 kts 172°
2026-05-04 07:03 -37.67026 144.84241 386 ft 8 kts 162°
2026-05-04 07:03 -37.67061 144.84300 385 ft 9 kts 86°
2026-05-04 07:03 -37.67051 144.84378 387 ft 7 kts 80°
2026-05-04 07:04 -37.67043 144.84427 389 ft 3 kts 65°
2026-05-04 07:04 -37.67033 144.84441 390 ft 1 kts 39°
2026-05-04 07:04 -37.67022 144.84448 390 ft 3 kts 20°
2026-05-04 07:04 -37.66992 144.84447 391 ft 5 kts 340°
2026-05-04 07:05 -37.66965 144.84430 391 ft 3 kts 333°
2026-05-04 07:05 -37.66949 144.84419 391 ft 2 kts 332°
2026-05-04 07:05 -37.66942 144.84415 391 ft 0 kts 332°